Location: Boca de Mesía
(10.2693°N, 66.8920°W)
Time: 21:31:14
(UTC+00:00)

Daily predictions for brighter satellites

Satellite Brightness Start Highest point End
(mag) Time Altitude Azimuth Time Altitude Azimuth Time Altitude Azimuth
Cosmos 2195 Rocket 4.5 23:02:36 10° S 23:08:42 79° E 23:14:49 10° N
Star 37E S/N 40062 2.8 23:11:58 10° SW 23:15:57 63° SSE 23:17:57 10° ENE
Cosmos 1328 Rocket 4.0 23:12:12 10° SSW 23:16:27 67° W 23:20:41 10° N
Cosmos 1066 Rocket 4.4 23:12:09 10° S 23:18:01 88° E 23:23:49 10° N
ADEOS 4.4 23:15:24 10° SE 23:19:57 31° ENE 23:24:28 10° NNE
SWIFT 3.5 23:22:37 10° W 23:26:17 37° NNW 23:29:57 10° NE
Fermi 3.6 23:23:20 10° WSW 23:27:19 75° SSE 23:31:16 10° ENE
Delta 202 4.4 23:20:33 10° W 23:27:35 51° SSW 23:32:35 12° SE
Cosmos 1092 Rocket 4.1 23:21:38 10° S 23:27:58 85° W 23:34:18 10° N
Cosmos 1766 4.5 23:27:46 10° NE 23:30:36 21° E 23:32:41 14° SE
Meteor PRIRODA 4.0 23:30:01 10° SSE 23:33:07 37° ENE 23:36:13 10° N
Ariane H10+ 3.4 23:31:36 10° SW 23:35:55 33° SSE 23:43:30 13° ESE
KORONAS-FOTON 3.6 23:35:13 10° S 23:38:55 79° E 23:42:37 10° N
Cosmos 968 Rocket 3.8 23:39:59 10° S 23:44:43 39° E 23:49:29 10° NNE
USA 215 3.4 23:42:02 10° SSE 23:48:35 80° SW 23:55:08 10° NW
SPOT 1/Viking Rocket 4.1 23:46:40 17° SE 23:50:10 38° ENE 23:54:52 10° N
Cosmos 1842 3.8 23:47:39 10° SSW 23:51:14 55° W 23:54:47 10° N
Resurs 01 Rocket 3.3 23:51:43 16° E 23:51:59 16° ENE 23:54:35 10° NE
Cosmos 1833 4.1 23:46:26 10° S 23:52:02 68° ESE 23:57:36 10° NNE
Cosmos 1707 2.7 23:50:29 10° S 23:54:04 75° W 23:57:39 10° N
Cosmos 1697 Rocket 4.0 23:49:17 10° NW 23:54:25 38° WSW 23:59:35 10° S
